Time,TemperatureF,DewpointF,PressureIn,WindDirection,WindDirectionDegrees,WindSpeedMPH,WindSpeedGustMPH,Humidity,HourlyPrecipIn,Conditions,Clouds,dailyrainin,SolarRadiationWatts/m^2,SoftwareType,DateUTC
2015-06-02 00:04:00,48.0,-40.0,29.92,NNW,337,0.0,0.0,0,0.00,,,0.00,0,Rainwise IP-100,2015-06-02 04:04:00,
2015-06-02 00:09:00,48.0,-40.0,29.92,NNW,337,0.0,0.0,0,0.00,,,0.00,0,Rainwise IP-100,2015-06-02 04:09:00,
2015-06-02 00:15:00,48.0,-40.0,29.91,NNW,337,0.0,0.0,0,0.00,,,0.00,0,Rainwise IP-100,2015-06-02 04:15:00,
2015-06-02 00:20:00,48.0,-40.0,29.91,NNW,337,0.0,0.0,0,0.00,,,0.00,0,Rainwise IP-100,2015-06-02 04:20:00,
2015-06-02 00:25:00,48.0,-40.0,29.91,NNW,337,0.0,0.0,0,0.00,,,0.00,0,Rainwise IP-100,2015-06-02 04:25:00,
2015-06-02 00:30:00,48.0,-40.0,29.91,NNW,337,0.0,0.0,0,0.00,,,0.00,0,Rainwise IP-100,2015-06-02 04:30:00,
2015-06-02 00:35:00,47.9,-40.0,29.90,NNW,337,0.0,0.0,0,0.00,,,0.00,0,Rainwise IP-100,2015-06-02 04:35:00,
2015-06-02 00:40:00,47.9,-40.0,29.90,NNW,337,0.0,0.0,0,0.00,,,0.00,0,Rainwise IP-100,2015-06-02 04:40:00,
2015-06-02 00:45:00,48.0,-40.0,29.90,NNW,337,0.0,0.0,0,0.00,,,0.00,0,Rainwise IP-100,2015-06-02 04:45:00,
2015-06-02 00:50:00,48.0,-40.0,29.90,NNW,337,0.0,0.0,0,0.00,,,0.00,0,Rainwise IP-100,2015-06-02 04:50:00,
2015-06-02 00:56:00,47.9,-40.0,29.90,NNW,337,0.0,0.0,0,0.00,,,0.00,0,Rainwise IP-100,2015-06-02 04:56:00,
2015-06-02 01:01:00,47.9,-40.0,29.90,NNW,337,0.0,0.0,0,0.00,,,0.00,0,Rainwise IP-100,2015-06-02 05:01:00,
2015-06-02 01:06:00,47.8,-40.0,29.90,NNW,337,0.0,0.0,0,0.00,,,0.00,0,Rainwise IP-100,2015-06-02 05:06:00,
2015-06-02 01:11:00,47.8,-40.0,29.90,NNW,337,0.0,0.0,0,0.00,,,0.00,0,Rainwise IP-100,2015-06-02 05:11:00,
2015-06-02 01:16:00,47.7,-40.0,29.90,NNW,337,0.0,0.0,0,0.00,,,0.00,0,Rainwise IP-100,2015-06-02 05:16:00,
2015-06-02 01:21:00,47.7,-40.0,29.90,NNW,337,0.0,0.0,0,0.00,,,0.00,0,Rainwise IP-100,2015-06-02 05:21:00,
2015-06-02 01:26:00,47.7,-40.0,29.90,NNW,337,0.0,0.0,0,0.00,,,0.00,0,Rainwise IP-100,2015-06-02 05:26:00,
2015-06-02 01:32:00,47.7,-40.0,29.90,NNW,337,0.0,0.0,0,0.00,,,0.00,0,Rainwise IP-100,2015-06-02 05:32:00,
2015-06-02 01:37:00,47.7,-40.0,29.90,NNW,337,0.0,0.0,0,0.00,,,0.00,0,Rainwise IP-100,2015-06-02 05:37:00,
2015-06-02 01:42:00,47.7,-40.0,29.89,NNW,337,0.0,0.0,0,0.00,,,0.00,0,Rainwise IP-100,2015-06-02 05:42:00,
2015-06-02 01:47:00,47.8,-40.0,29.89,NNW,337,0.0,0.0,0,0.00,,,0.00,0,Rainwise IP-100,2015-06-02 05:47:00,
2015-06-02 01:52:00,48.2,-40.0,29.89,NNW,337,0.0,0.0,0,0.00,,,0.00,0,Rainwise IP-100,2015-06-02 05:52:00,
2015-06-02 01:57:00,48.2,-40.0,29.89,NNW,337,0.0,0.0,0,0.00,,,0.00,0,Rainwise IP-100,2015-06-02 05:57:00,
2015-06-02 02:02:00,48.2,-40.0,29.89,NNW,337,0.0,0.0,0,0.00,,,0.00,0,Rainwise IP-100,2015-06-02 06:02:00,
2015-06-02 02:07:00,48.2,-40.0,29.88,NNW,337,0.0,0.0,0,0.00,,,0.00,0,Rainwise IP-100,2015-06-02 06:07:00,
2015-06-02 02:13:00,48.2,-40.0,29.88,NNW,337,0.0,0.0,0,0.00,,,0.00,0,Rainwise IP-100,2015-06-02 06:13:00,
2015-06-02 02:18:00,48.2,-40.0,29.88,NNW,337,0.0,0.0,0,0.00,,,0.00,0,Rainwise IP-100,2015-06-02 06:18:00,
2015-06-02 02:23:00,48.2,-40.0,29.88,NNW,337,0.0,0.0,0,0.00,,,0.00,0,Rainwise IP-100,2015-06-02 06:23:00,
2015-06-02 02:28:00,48.2,-40.0,29.88,NNW,337,0.0,0.0,0,0.00,,,0.00,0,Rainwise IP-100,2015-06-02 06:28:00,
2015-06-02 02:33:00,47.9,-40.0,29.88,NNW,337,0.0,0.0,0,0.00,,,0.00,0,Rainwise IP-100,2015-06-02 06:33:00,
2015-06-02 02:38:00,47.9,-40.0,29.88,NNW,337,0.0,0.0,0,0.00,,,0.00,0,Rainwise IP-100,2015-06-02 06:38:00,
2015-06-02 02:43:00,47.9,-40.0,29.88,NNW,337,0.0,0.0,0,0.00,,,0.00,0,Rainwise IP-100,2015-06-02 06:43:00,
2015-06-02 02:49:00,48.0,-40.0,29.88,NNW,337,0.0,0.0,0,0.00,,,0.00,0,Rainwise IP-100,2015-06-02 06:49:00,
2015-06-02 02:54:00,48.1,-40.0,29.87,NNW,337,0.0,0.0,0,0.00,,,0.00,0,Rainwise IP-100,2015-06-02 06:54:00,
2015-06-02 02:59:00,48.1,-40.0,29.87,NNW,337,0.0,0.0,0,0.00,,,0.00,0,Rainwise IP-100,2015-06-02 06:59:00,
2015-06-02 03:04:00,48.1,-40.0,29.88,NNW,337,0.0,0.0,0,0.00,,,0.00,0,Rainwise IP-100,2015-06-02 07:04:00,
2015-06-02 03:09:00,48.1,-40.0,29.88,NNW,337,0.0,0.0,0,0.00,,,0.00,0,Rainwise IP-100,2015-06-02 07:09:00,
2015-06-02 03:14:00,48.0,-40.0,29.88,NNW,337,0.0,0.0,0,0.00,,,0.00,0,Rainwise IP-100,2015-06-02 07:14:00,
2015-06-02 03:19:00,47.9,-40.0,29.88,NNW,337,0.0,0.0,0,0.00,,,0.00,0,Rainwise IP-100,2015-06-02 07:19:00,
2015-06-02 03:24:00,47.9,-40.0,29.88,NNW,337,0.0,0.0,0,0.00,,,0.00,0,Rainwise IP-100,2015-06-02 07:24:00,
2015-06-02 03:30:00,47.9,-40.0,29.88,NW,315,0.0,0.0,0,0.00,,,0.00,0,Rainwise IP-100,2015-06-02 07:30:00,
2015-06-02 03:35:00,47.9,-40.0,29.88,NW,315,0.0,0.0,0,0.00,,,0.00,0,Rainwise IP-100,2015-06-02 07:35:00,
2015-06-02 03:40:00,47.9,-40.0,29.88,NW,315,0.0,0.0,0,0.00,,,0.00,0,Rainwise IP-100,2015-06-02 07:40:00,
2015-06-02 03:45:00,47.9,-40.0,29.88,NW,315,0.0,0.0,0,0.00,,,0.00,0,Rainwise IP-100,2015-06-02 07:45:00,
2015-06-02 03:50:00,47.9,-40.0,29.88,NW,315,0.0,0.0,0,0.00,,,0.00,0,Rainwise IP-100,2015-06-02 07:50:00,
2015-06-02 03:55:00,47.9,-40.0,29.88,NW,315,0.0,0.0,0,0.00,,,0.00,0,Rainwise IP-100,2015-06-02 07:55:00,
2015-06-02 04:00:00,48.0,-40.0,29.88,NW,315,0.0,0.0,0,0.00,,,0.00,0,Rainwise IP-100,2015-06-02 08:00:00,
2015-06-02 04:06:00,48.1,-40.0,29.88,NW,315,0.0,0.0,0,0.00,,,0.00,0,Rainwise IP-100,2015-06-02 08:06:00,
2015-06-02 04:11:00,48.1,-40.0,29.88,NW,315,0.0,0.0,0,0.00,,,0.00,0,Rainwise IP-100,2015-06-02 08:11:00,
2015-06-02 04:16:00,48.1,-40.0,29.88,NW,315,0.0,0.0,0,0.00,,,0.00,0,Rainwise IP-100,2015-06-02 08:16:00,
2015-06-02 04:21:00,48.1,-40.0,29.88,NW,315,0.0,0.0,0,0.00,,,0.00,0,Rainwise IP-100,2015-06-02 08:21:00,
2015-06-02 04:26:00,48.0,-40.0,29.88,NW,315,0.0,0.0,0,0.00,,,0.00,0,Rainwise IP-100,2015-06-02 08:26:00,
2015-06-02 04:31:00,48.0,-40.0,29.88,NW,315,0.0,0.0,0,0.00,,,0.00,0,Rainwise IP-100,2015-06-02 08:31:00,
2015-06-02 04:36:00,48.0,-40.0,29.87,NW,315,0.0,0.0,0,0.00,,,0.00,0,Rainwise IP-100,2015-06-02 08:36:00,
2015-06-02 04:41:00,48.1,-40.0,29.87,NW,315,0.0,0.0,0,0.00,,,0.00,0,Rainwise IP-100,2015-06-02 08:41:00,
2015-06-02 04:47:00,48.0,-40.0,29.87,NW,315,0.0,0.0,0,0.00,,,0.00,0,Rainwise IP-100,2015-06-02 08:47:00,
2015-06-02 04:52:00,47.9,-40.0,29.87,NW,315,0.0,0.0,0,0.00,,,0.00,0,Rainwise IP-100,2015-06-02 08:52:00,
2015-06-02 04:57:00,47.9,-40.0,29.87,NW,315,0.0,0.0,0,0.00,,,0.00,0,Rainwise IP-100,2015-06-02 08:57:00,
2015-06-02 05:02:00,47.9,-40.0,29.86,NW,315,0.0,0.0,0,0.00,,,0.00,0,Rainwise IP-100,2015-06-02 09:02:00,
2015-06-02 05:07:00,47.9,-40.0,29.86,NW,315,0.0,0.0,0,0.00,,,0.00,0,Rainwise IP-100,2015-06-02 09:07:00,
2015-06-02 05:12:00,48.1,-40.0,29.86,NW,315,0.0,0.0,0,0.00,,,0.00,0,Rainwise IP-100,2015-06-02 09:12:00,
2015-06-02 05:17:00,48.1,-40.0,29.86,NW,315,0.0,0.0,0,0.00,,,0.00,5,Rainwise IP-100,2015-06-02 09:17:00,
2015-06-02 05:23:00,48.1,-40.0,29.86,NW,315,0.0,0.0,0,0.00,,,0.00,7,Rainwise IP-100,2015-06-02 09:23:00,
2015-06-02 05:28:00,48.1,-40.0,29.86,NW,315,0.0,0.0,0,0.00,,,0.00,10,Rainwise IP-100,2015-06-02 09:28:00,
2015-06-02 05:33:00,48.2,-40.0,29.86,NW,315,0.0,0.0,0,0.00,,,0.00,11,Rainwise IP-100,2015-06-02 09:33:00,
2015-06-02 05:38:00,48.2,-40.0,29.86,NW,315,0.0,0.0,0,0.00,,,0.00,13,Rainwise IP-100,2015-06-02 09:38:00,
2015-06-02 05:43:00,48.3,-40.0,29.86,NW,315,0.0,0.0,0,0.00,,,0.00,14,Rainwise IP-100,2015-06-02 09:43:00,
2015-06-02 05:48:00,48.2,-40.0,29.86,NW,315,0.0,0.0,0,0.00,,,0.00,18,Rainwise IP-100,2015-06-02 09:48:00,
2015-06-02 05:53:00,48.3,-40.0,29.86,NW,315,0.0,0.0,0,0.00,,,0.00,20,Rainwise IP-100,2015-06-02 09:53:00,